[[{"header":{"parameterUnit":"m.s-1","parameterCategory":1,"la1":30.2991,"la2":30.254,"lo1":-89.0895,"lo2":-89.0444,"dy":0.0017,"dx":0.0017,"nx":28,"ny":28,"refTime":"2024-04-13T09:00:00:Z","depth":0,"parameterNumber":2,"parameterNumberName":"U-component_of_WINDS"},"data":[0,0,0,0,0,0,0,0,0,0,0,0,0,0,0,0,0,0,0,0,0,0,0,0,0,0,0,0,0,0,0,0,0,0,0,0,0,0,0,0,0,0,0,0,0,0,0,0,0,0,0,0,0,0,0,0,0,0,-1.7585,-1.7586,0,-1.7668,-1.7669,-1.767,-1.7682,-1.7681,-1.768,-1.768,-1.7766,-1.7769,-1.7772,0,0,0,0,0,0,0,0,0,0,0,0,0,-1.7439,-1.7441,-1.7585,-1.7586,-1.7587,-1.7668,-1.7669,-1.767,-1.7682,-1.7681,-1.768,-1.7679,-1.7765,-1.7769,-1.7773,0,0,0,0,0,0,0,0,0,0,0,0,0,-1.751,-1.7442,-1.7585,-1.7603,-1.7605,-1.7668,-1.7669,-1.7671,-1.7682,-1.7681,-1.768,-1.7679,-1.7764,-1.7769,-1.7773,-1.7824,0,0,-1.7787,-1.7789,0,0,0,0,0,0,0,0,-1.7506,-1.7515,-1.7599,-1.7602,-1.7604,-1.7663,-1.7649,-1.7722,-1.7683,-1.7653,-1.768,-1.7678,-1.7733,-1.774,-1.7758,-1.7828,-1.7832,-1.7787,-1.779,-1.7792,-1.7793,0,0,0,0,0,0,0,-1.7501,-1.7512,-1.7618,-1.76,-1.7604,-1.7607,-1.7616,-1.7663,-1.7699,-1.7655,-1.7657,-1.7666,-1.7734,-1.7754,-1.776,-1.7833,-1.7787,-1.7791,-1.7794,-1.7796,-1.795,-1.7951,0,0,0,0,0,0,-1.7493,-1.7508,-1.7615,-1.762,-1.7551,-1.7611,-1.7621,-1.7646,-1.7698,-1.7705,-1.7667,-1.7666,-1.7747,-1.7755,-1.7764,-1.7827,-1.7792,-1.7796,-1.7799,-1.7949,-1.795,-1.7952,0,0,0,0,0,0,-1.7489,-1.7502,-1.7612,-1.7564,-1.7579,-1.7615,-1.7643,-1.7648,-1.7667,-1.7707,-1.7713,-1.768,-1.7746,-1.7757,-1.7809,-1.783,-1.7798,-1.7802,-1.7947,-1.7949,-1.7951,-1.7954,0,0,0,0,0,0,-1.7485,-1.7501,-1.752,-1.7565,-1.7581,-1.7656,-1.7644,-1.765,-1.7675,-1.7675,-1.7721,-1.7728,-1.7746,-1.7802,-1.7814,-1.7836,-1.7806,-1.7945,-1.7948,-1.795,-1.7952,-1.7956,-1.7959,0,0,0,0,0,-1.748,-1.7518,-1.7521,-1.7534,-1.7606,-1.7657,-1.7666,-1.7686,-1.7677,-1.7697,-1.7722,-1.7726,-1.7826,-1.7807,-1.782,-1.7844,-1.7944,-1.7947,-1.795,-1.7951,-1.7955,-1.7959,0,0,0,0,0,0,-1.7476,-1.7524,-1.7528,-1.7582,-1.7615,-1.7659,-1.7684,-1.769,-1.7727,-1.7726,-1.775,-1.776,-1.7811,-1.7833,-1.7811,-1.7897,-1.7884,-1.789,-1.788,-1.7885,-1.7888,-1.7882,-1.781,0,0,0,0,0,-1.7481,-1.7517,-1.7558,-1.7602,-1.7618,-1.7648,-1.7671,-1.7684,-1.7719,-1.7734,-1.7763,-1.7798,-1.7837,-1.7862,-1.7901,-1.7956,-1.7966,-1.7979,-1.7982,-1.7985,-1.7989,-1.802,-1.8026,-1.7962,-1.7962,-1.7962,0,0,-1.7492,-1.7523,-1.7545,-1.7601,-1.7629,-1.7666,-1.766,-1.77,-1.7729,-1.774,-1.779,-1.7813,-1.7854,-1.7907,-1.7932,-1.7927,-1.8009,-1.7988,-1.799,-1.7994,-1.8024,-1.803,-1.8035,-1.7964,-1.7963,-1.7963,0,0,-1.7532,-1.7559,-1.7598,-1.7625,-1.7666,-1.7686,-1.7696,-1.7739,-1.7754,-1.7805,-1.7814,-1.7849,-1.7916,-1.7944,-1.7968,-1.8018,-1.8024,-1.803,-1.8048,-1.8078,-1.8083,-1.8087,-1.8105,-1.8111,-1.8035,-1.8035,-1.8035,0,-1.7541,-1.7597,-1.7618,-1.7657,-1.7682,-1.7694,-1.7734,-1.776,-1.7811,-1.7828,-1.7822,-1.7906,-1.7935,-1.7995,-1.8007,-1.8026,-1.8037,-1.8025,-1.808,-1.8085,-1.809,-1.8107,-1.8114,-1.8036,-1.8036,-1.8035,-1.8035,0,-1.7606,-1.7646,-1.7672,-1.7721,-1.7749,-1.7789,-1.7816,-1.7842,-1.7852,-1.7873,-1.7925,-1.7959,-1.8004,-1.802,-1.8031,-1.8082,-1.8077,-1.8075,-1.8063,-1.8096,-1.8113,-1.812,-1.8036,-1.8036,-1.8036,-1.8036,0,0,-1.7645,-1.7705,-1.7714,-1.7737,-1.7783,-1.7814,-1.7855,-1.7898,-1.792,-1.7956,-1.799,-1.8047,-1.8045,-1.8072,-1.8086,-1.8112,-1.815,-1.8107,-1.8108,-1.8113,-1.8208,-1.8209,-1.8216,-1.8154,-1.8155,-1.8156,-1.8205,0,-1.769,-1.7762,-1.7781,-1.7842,-1.7879,-1.7891,-1.7926,-1.7958,-1.7979,-1.8014,-1.8037,-1.8077,-1.8072,-1.8088,-1.8114,-1.814,-1.8169,-1.8137,-1.8186,-1.8188,-1.8175,-1.8225,-1.8226,-1.827,-1.8211,-1.8212,-1.8213,0,-1.7752,-1.7788,-1.7852,-1.7894,-1.791,-1.7941,-1.7983,-1.8016,-1.8053,-1.8066,-1.8096,-1.8107,-1.8151,-1.8137,-1.8197,-1.8174,-1.8196,-1.8211,-1.8214,-1.8219,-1.8202,-1.8231,-1.8284,-1.8291,-1.8224,-1.8223,-1.8222,0,-1.7774,-1.7838,-1.7885,-1.7904,-1.7953,-1.7975,-1.7997,-1.8033,-1.8058,-1.8095,-1.8111,-1.8153,-1.8176,-1.8208,-1.8231,-1.8219,-1.8289,-1.8277,-1.8301,-1.8301,-1.8315,-1.8313,-1.8372,-1.833,-1.833,-1.833,-1.8329,0,-1.7821,-1.786,-1.7895,-1.7924,-1.7968,-1.799,-1.8033,-1.8056,-1.8088,-1.8122,-1.8135,-1.8166,-1.8195,-1.823,-1.8249,-1.8295,-1.8306,-1.8318,-1.8322,-1.8316,-1.8315,-1.833,-1.8328,-1.8331,-1.8331,-1.8331,-1.833,0,-1.7853,-1.7878,-1.7929,-1.7972,-1.7983,-1.8014,-1.8051,-1.8079,-1.81,-1.8143,-1.8154,-1.8188,-1.823,-1.8256,-1.831,-1.8323,-1.8374,-1.8377,-1.8361,-1.8363,-1.8385,-1.8383,-1.8456,-1.8466,-1.8417,-1.8418,-1.8418,0,-1.7881,-1.7911,-1.7957,-1.798,-1.8002,-1.8039,-1.8064,-1.8088,-1.8114,-1.8159,-1.8182,-1.8225,-1.8261,-1.8328,-1.8357,-1.8399,-1.8403,-1.8426,-1.8409,-1.8402,-1.8403,-1.84,-1.8403,-1.8428,-1.8429,-1.8429,-1.8429,0,-1.7929,-1.794,-1.7976,-1.8016,-1.8046,-1.8079,-1.8112,-1.813,-1.8159,-1.8188,-1.8231,-1.8259,-1.8314,-1.8356,-1.84,-1.8423,-1.8431,-1.8434,-1.8442,-1.8436,-1.8425,-1.8431,-1.8368,-1.8432,-1.8432,-1.8432,-1.8432,-1.8432,-1.796,-1.7987,-1.8023,-1.8062,-1.8089,-1.812,-1.8149,-1.8173,-1.8209,-1.8255,-1.8267,-1.8312,-1.8349,-1.8409,-1.8433,-1.8469,-1.8466,-1.8477,-1.848,-1.8482,-1.8482,-1.842,-1.8477,-1.8477,-1.8477,-1.8477,-1.8477,0,-1.8008,-1.8032,-1.8068,-1.8113,-1.8144,-1.8148,-1.8185,-1.8211,-1.825,-1.8284,-1.8318,-1.8368,-1.8409,-1.8442,-1.8484,-1.8507,-1.8512,-1.8517,-1.8515,-1.8521,-1.8483,-1.8472,-1.8513,-1.8513,-1.8513,-1.8513,-1.8513,-1.8512,-1.8037,-1.8083,-1.8098,-1.8157,-1.8181,-1.8225,-1.8245,-1.8273,-1.83,-1.8354,-1.8388,-1.8409,-1.8443,-1.8488,-1.8526,-1.8534,-1.8549,-1.8554,-1.8563,-1.8527,-1.8523,-1.852,-1.8509,-1.8557,-1.8557,-1.8598,-1.8598,-1.8599]},{"header":{"parameterUnit":"m.s-1","parameterCategory":1,"la1":30.2991,"la2":30.254,"lo1":-89.0895,"lo2":-89.0444,"dy":0.0017,"dx":0.0017,"nx":28,"ny":28,"refTime":"2024-04-13T09:00:00:Z","depth":0,"parameterNumber":3,"parameterNumberName":"V-component_of_WINDS"},"data":[0,0,0,0,0,0,0,0,0,0,0,0,0,0,0,0,0,0,0,0,0,0,0,0,0,0,0,0,0,0,0,0,0,0,0,0,0,0,0,0,0,0,0,0,0,0,0,0,0,0,0,0,0,0,0,0,0,0,2.6091,2.609,0,2.6044,2.6043,2.6043,2.5972,2.5971,2.5969,2.5968,2.5921,2.5921,2.5921,0,0,0,0,0,0,0,0,0,0,0,0,0,2.6118,2.6118,2.6091,2.609,2.6089,2.6044,2.6043,2.6043,2.5972,2.5971,2.5969,2.5968,2.5921,2.5921,2.5921,0,0,0,0,0,0,0,0,0,0,0,0,0,2.6092,2.6118,2.6091,2.6049,2.6044,2.6044,2.6043,2.6043,2.5972,2.5971,2.5969,2.5967,2.5921,2.5921,2.5921,2.5959,0,0,2.5921,2.5921,0,0,0,0,0,0,0,0,2.6094,2.6091,2.6055,2.6052,2.6047,2.6012,2.6036,2.6014,2.5973,2.6,2.5968,2.5966,2.5953,2.595,2.5946,2.5956,2.5954,2.5921,2.5921,2.5921,2.5921,0,0,0,0,0,0,0,2.6096,2.6093,2.6072,2.6055,2.605,2.6032,2.6026,2.6031,2.5988,2.5997,2.5992,2.5987,2.595,2.5946,2.5944,2.5954,2.5921,2.5921,2.5921,2.5921,2.5991,2.5993,0,0,0,0,0,0,2.6104,2.6095,2.6074,2.6071,2.6066,2.6033,2.6027,2.6025,2.5987,2.598,2.5989,2.5984,2.5947,2.5944,2.5942,2.5983,2.5921,2.5921,2.5921,2.5989,2.5991,2.5993,0,0,0,0,0,0,2.6104,2.6102,2.6075,2.6081,2.6077,2.6035,2.6033,2.6025,2.6021,2.5981,2.5973,2.5993,2.5945,2.5942,2.5955,2.598,2.5921,2.5921,2.5987,2.599,2.5992,2.6065,0,0,0,0,0,0,2.6106,2.6103,2.6117,2.6082,2.6077,2.6089,2.6035,2.6026,2.6021,2.6014,2.5982,2.5975,2.5944,2.5955,2.5955,2.5979,2.5921,2.5984,2.5988,2.5991,2.606,2.607,2.6078,0,0,0,0,0,2.6107,2.614,2.6118,2.6116,2.6093,2.6091,2.6088,2.605,2.6023,2.6036,2.6011,2.5976,2.5977,2.5957,2.5956,2.598,2.5983,2.5987,2.5991,2.6056,2.6068,2.6078,0,0,0,0,0,0,2.618,2.6135,2.611,2.6133,2.6116,2.6079,2.6095,2.6064,2.6055,2.6049,2.6003,2.5997,2.6015,2.5999,2.5977,2.6014,2.5974,2.5979,2.6024,2.6035,2.6044,2.6048,2.592,0,0,0,0,0,2.6198,2.62,2.6161,2.6184,2.6177,2.6138,2.6135,2.6108,2.6089,2.6081,2.6057,2.604,2.6036,2.6034,2.6029,2.6057,2.6048,2.6073,2.6082,2.6089,2.6094,2.6106,2.6117,2.6008,2.6008,2.6008,0,0,2.6237,2.6213,2.6217,2.6198,2.6182,2.6185,2.6132,2.6138,2.6139,2.6082,2.6092,2.6073,2.6051,2.6071,2.6079,2.6058,2.6122,2.6095,2.6101,2.6102,2.6112,2.6122,2.6132,2.6011,2.601,2.601,0,0,2.6309,2.6291,2.6308,2.6293,2.6269,2.6242,2.6246,2.6213,2.6198,2.6207,2.6164,2.6165,2.6159,2.6145,2.6137,2.6201,2.6169,2.6201,2.6249,2.6262,2.627,2.6277,2.63,2.6309,2.6205,2.6205,2.6206,0,2.6361,2.6363,2.6321,2.6329,2.6322,2.6269,2.6286,2.6273,2.6249,2.6245,2.6222,2.6213,2.6194,2.621,2.6225,2.6221,2.6224,2.6205,2.6272,2.6279,2.6285,2.6307,2.6315,2.6209,2.6209,2.6209,2.6208,0,2.6427,2.6429,2.6446,2.6423,2.6418,2.643,2.639,2.6389,2.6362,2.6337,2.6347,2.6322,2.631,2.6311,2.6285,2.6323,2.631,2.6281,2.624,2.6301,2.632,2.6327,2.6215,2.6214,2.6212,2.6212,0,0,2.6546,2.6498,2.6505,2.6493,2.6462,2.6462,2.6472,2.6459,2.646,2.6444,2.6451,2.6446,2.6418,2.6409,2.638,2.6391,2.6443,2.6359,2.6358,2.6375,2.6482,2.6505,2.6515,2.6421,2.6422,2.6423,2.6484,0,2.6611,2.6625,2.6587,2.661,2.6611,2.656,2.6568,2.655,2.6527,2.6524,2.6498,2.6496,2.6459,2.6453,2.6461,2.6435,2.6464,2.643,2.6426,2.6427,2.6434,2.6525,2.655,2.6609,2.6491,2.6492,2.6493,0,2.6691,2.6678,2.6702,2.6667,2.6666,2.6674,2.6659,2.6657,2.6635,2.6617,2.6606,2.6572,2.6578,2.6539,2.6546,2.6524,2.652,2.6507,2.6508,2.6507,2.6464,2.6527,2.6627,2.6636,2.6505,2.6504,2.6503,0,2.6774,2.6763,2.6776,2.6767,2.6728,2.6734,2.6718,2.6694,2.6688,2.6675,2.6671,2.6658,2.6652,2.6643,2.6606,2.6581,2.6618,2.6575,2.6603,2.6604,2.6614,2.6614,2.6715,2.6611,2.6611,2.661,2.661,0,2.6852,2.6869,2.6812,2.682,2.6836,2.6792,2.6809,2.6788,2.6766,2.6768,2.6723,2.6726,2.6677,2.6674,2.6645,2.6656,2.6653,2.6639,2.6631,2.6643,2.6645,2.664,2.6635,2.6613,2.6612,2.6612,2.6611,0,2.6949,2.6912,2.6922,2.6884,2.6874,2.6888,2.6854,2.686,2.6833,2.6836,2.6834,2.6793,2.6787,2.6749,2.6735,2.6715,2.6736,2.672,2.6744,2.6739,2.6768,2.6766,2.687,2.6881,2.677,2.6771,2.6772,0,2.7002,2.7013,2.6975,2.6973,2.6959,2.6956,2.695,2.6906,2.6902,2.6876,2.6884,2.6874,2.6865,2.6858,2.6826,2.6814,2.6798,2.6835,2.6796,2.6807,2.6798,2.6798,2.6799,2.6844,2.6845,2.6846,2.6847,0,2.7099,2.7079,2.7072,2.7059,2.7052,2.7039,2.7024,2.7025,2.6976,2.6973,2.6966,2.6959,2.6943,2.6934,2.6917,2.69,2.6866,2.686,2.6865,2.6878,2.6892,2.6885,2.6767,2.6858,2.6857,2.6856,2.6855,2.6855,2.7175,2.7182,2.7156,2.7149,2.7132,2.7119,2.7121,2.7094,2.7088,2.7072,2.7046,2.7043,2.7018,2.6992,2.6977,2.6973,2.6954,2.6962,2.6964,2.6967,2.6973,2.6892,2.697,2.697,2.6969,2.6969,2.6969,0,2.7269,2.725,2.7244,2.7223,2.7217,2.7185,2.7165,2.7163,2.716,2.714,2.7131,2.7123,2.7113,2.708,2.7067,2.7071,2.7055,2.7069,2.7068,2.7065,2.6992,2.6988,2.7082,2.7082,2.7082,2.7082,2.7082,2.7082,2.7318,2.7328,2.7306,2.7306,2.7286,2.7283,2.7275,2.7261,2.7245,2.7237,2.7229,2.7207,2.7182,2.7166,2.7156,2.7146,2.7143,2.7163,2.7148,2.7081,2.707,2.706,2.7056,2.7163,2.7163,2.7221,2.7222,2.7222]}]]